This is the latest recevied weather packets stored in our database for station/object F5MDY-10. If no packets are shown the sender has not sent any weather packets the latest 10 day(s).
| Time | Temp. | Humidity | Pressure | Rain* | Wind** | Luminosity | Snow |
|---|---|---|---|---|---|---|---|
| 1777591901 | 23.33° C | 50% | 996.1 hPa | - | - | - | - |
| 1777589981 | 23.33° C | 50% | 996 hPa | - | - | - | - |
| 1777588061 | 23.33° C | 50% | 995.9 hPa | - | - | - | - |
| 1777586140 | 23.33° C | 49% | 995.9 hPa | - | - | - | - |
| 1777584220 | 23.33° C | 50% | 995.8 hPa | - | - | - | - |
| 1777582300 | 23.33° C | 50% | 995.8 hPa | - | - | - | - |
| 1777580380 | 23.33° C | 50% | 995.6 hPa | - | - | - | - |
| 1777578460 | 23.33° C | 50% | 995.2 hPa | - | - | - | - |
| 1777576540 | 23.33° C | 50% | 995 hPa | - | - | - | - |
| 1777574620 | 23.89° C | 50% | 994.6 hPa | - | - | - | - |
| 1777572700 | 23.89° C | 49% | 994.4 hPa | - | - | - | - |
| 1777570780 | 23.89° C | 48% | 994 hPa | - | - | - | - |
| 1777568860 | 25° C | 45% | 993.9 hPa | - | - | - | - |
| 1777566940 | 26.11° C | 43% | 993.6 hPa | - | - | - | - |
| 1777565019 | 23.33° C | 48% | 993.4 hPa | - | - | - | - |
| 1777563099 | 23.33° C | 49% | 993.3 hPa | - | - | - | - |
| 1777561179 | 23.33° C | 49% | 993.4 hPa | - | - | - | - |
| 1777559259 | 23.33° C | 49% | 993.5 hPa | - | - | - | - |
| 1777557339 | 23.33° C | 49% | 992.9 hPa | - | - | - | - |
| 1777555419 | 23.33° C | 48% | 993.1 hPa | - | - | - | - |
| 1777553499 | 23.33° C | 48% | 993.1 hPa | - | - | - | - |
| 1777551579 | 23.33° C | 49% | 992.9 hPa | - | - | - | - |
| 1777549658 | 23.33° C | 49% | 993 hPa | - | - | - | - |
| 1777547738 | 23.33° C | 49% | 993 hPa | - | - | - | - |
| 1777545818 | 22.78° C | 49% | 993.1 hPa | - | - | - | - |
* Rain since midnight (hover to see other rain measurements)
** Current wind speed in m/s (hover to see current wind gust speed)